WN8IZV Weather Reports


Display with metric or nautical units.
time (UTC)temp
F
wind
direction
speed
MPH
gust
MPH
rain 1hr
in
rain 24hr
in
rain mn
in
humidity
%
barometer
mb
20260905201517 80 327 2.0 5.0 0.00 0.00 0.00 85 1014.5
20260905200019 81 53 1.0 10.0 0.00 0.00 0.00 85 1014.3
20260905194513 82 20 0.0 4.0 0.00 0.00 0.00 85 1014.4
20260905193010 82 80 0.0 6.0 0.00 0.00 0.00 85 1014.5
20260905191607 82 48 1.0 3.0 0.00 0.00 0.00 85 1014.5
20260905190005 81 310 1.0 5.0 0.00 0.00 0.00 86 1014.8
20260905184504 81 57 1.0 3.0 0.00 0.00 0.00 86 1014.8
20260905183000 80 65 0.0 8.0 0.00 0.00 0.00 86 1014.8
20260905181609 81 187 0.0 6.0 0.00 0.00 0.00 86 1014.8
20260905180153 80 295 1.0 7.0 0.00 0.00 0.00 86 1014.9
20260905174554 80 337 1.0 5.0 0.00 0.00 0.00 86 1014.9
20260905173048 79 32 1.0 6.0 0.00 0.00 0.00 86 1015.1
20260905171542 79 274 1.0 3.0 0.00 0.00 0.00 86 1015.3
20260905170040 78 20 1.0 5.0 0.00 0.00 0.00 86 1015.3
20260905164537 78 93 1.0 5.0 0.00 0.00 0.00 85 1015.2
20260905163036 78 8 1.0 4.0 0.00 0.00 0.00 86 1015.3
20260905161537 78 326 1.0 6.0 0.00 0.00 0.00 86 1015.1
20260905160032 77 188 1.0 6.0 0.00 0.00 0.00 85 1015.2
20260905154527 77 113 0.0 2.0 0.00 0.03 0.00 85 1015.1
20260905153024 76 63 0.0 4.0 0.00 0.03 0.00 85 1015.2
20260905151518 75 8 1.0 5.0 0.00 0.03 0.00 85 1015.0
20260905150012 73 39 0.0 3.0 0.00 0.03 0.00 85 1014.9
20260905144508 72 79 0.0 8.0 0.00 0.10 0.00 85 1014.9
20260905143006 72 82 0.0 3.0 0.00 0.10 0.00 85 1014.7
20260905141502 71 306 0.0 2.0 0.00 0.10 0.00 85 1014.7
20260905140059 71 224 0.0 1.0 0.00 0.10 0.00 85 1014.9
20260905134555 70 13 0.0 3.0 0.00 0.15 0.00 85 1014.7
20260905133054 70 338 0.0 1.0 0.00 0.15 0.00 84 1014.7
20260905131603 69 290 0.0 1.0 0.00 0.15 0.00 84 1014.9
20260905130050 69 346 0.0 1.0 0.00 0.15 0.00 84 1014.8
20260905124546 68 290 0.0 1.0 0.00 0.16 0.00 84 1014.7
20260905123044 68 331 0.0 1.0 0.00 0.16 0.00 84 1014.8
20260905121542 68 229 0.0 0.0 0.00 0.16 0.00 84 1014.6
20260905120039 67 245 0.0 1.0 0.00 0.16 0.00 84 1014.5
20260905114537 67 269 0.0 0.0 0.00 0.19 0.00 84 1014.5
20260905113034 67 198 0.0 0.0 0.00 0.19 0.00 84 1014.4
20260905111543 67 162 0.0 0.0 0.00 0.19 0.00 84 1014.1
20260905110031 67 167 0.0 0.0 0.00 0.19 0.00 84 1013.9
20260905104531 67 169 0.0 0.0 0.00 0.19 0.00 84 1014.2
20260905103031 67 355 0.0 0.0 0.00 0.19 0.00 84 1014.4
20260905101529 66 6 0.0 0.0 0.00 0.19 0.00 84 1014.2
20260905100024 67 6 0.0 0.0 0.00 0.19 0.00 84 1014.2
20260905094519 67 6 0.0 0.0 0.00 0.19 0.00 84 1014.4
20260905093019 67 6 0.0 0.0 0.00 0.19 0.00 84 1014.1
20260905091513 67 262 0.0 0.0 0.00 0.19 0.00 84 1014.2
20260905090010 68 352 0.0 0.0 0.00 0.19 0.00 84 1013.7
20260905084512 68 3 0.0 0.0 0.00 0.19 0.00 84 1013.3
20260905083007 68 9 0.0 0.0 0.00 0.19 0.00 84 1013.3
20260905081509 68 9 0.0 3.0 0.00 0.19 0.00 84 1013.6
20260905080002 68 231 0.0 0.0 0.00 0.19 0.00 84 1013.4
20260905074624 68 231 0.0 1.0 0.00 0.19 0.00 84 1013.7
20260905073059 68 4 0.0 2.0 0.00 0.19 0.00 84 1013.9
20260905071600 68 354 0.0 0.0 0.00 0.19 0.00 84 1013.5
20260905070107 68 355 0.0 2.0 0.00 0.19 0.00 84 1013.2
20260905064552 68 212 0.0 2.0 0.00 0.19 0.00 84 1012.9
20260905063048 69 356 0.0 1.0 0.00 0.19 0.00 84 1013.1
20260905061545 69 15 0.0 5.0 0.00 0.19 0.00 84 1013.6
20260905060041 69 11 0.0 0.0 0.00 0.19 0.00 84 1013.8
20260905054548 69 352 0.0 0.0 0.00 0.19 0.00 84 1014.0
20260905053042 68 16 0.0 2.0 0.00 0.19 0.00 84 1013.8
20260905051539 68 6 0.0 0.0 0.00 0.19 0.00 84 1013.7
20260905050027 68 6 0.0 1.0 0.00 0.19 0.00 84 1013.9
20260905044525 69 356 0.0 0.0 0.00 0.19 0.00 84 1014.1
20260905043021 69 356 0.0 0.0 0.00 0.19 0.00 85 1014.0
20260905041516 70 356 0.0 1.0 0.00 0.19 0.00 85 1014.1
20260905040015 71 352 0.0 2.0 0.00 0.19 0.00 85 1014.3
20260905034508 71 347 0.0 4.0 0.00 0.19 0.19 85 1014.4
20260905033011 71 346 0.0 3.0 0.00 0.19 0.19 85 1014.6
20260905031508 71 6 0.0 4.0 0.00 0.19 0.19 85 1014.6
20260905030004 72 14 1.0 5.0 0.00 0.19 0.19 85 1014.7
20260905024601 72 7 0.0 4.0 0.00 0.19 0.19 85 1014.5
20260905023101 72 352 0.0 3.0 0.00 0.19 0.19 85 1014.6
20260905021557 72 22 0.0 5.0 0.00 0.19 0.19 85 1014.6
20260905020058 72 352 0.0 4.0 0.00 0.19 0.19 85 1014.8
20260905014551 73 9 0.0 2.0 0.00 0.19 0.19 85 1014.8
20260905013047 73 41 0.0 0.0 0.00 0.19 0.19 85 1014.6
20260905011547 74 273 0.0 0.0 0.00 0.19 0.19 85 1014.5
20260905010053 75 217 0.0 1.0 0.00 0.19 0.19 86 1014.4
20260905004541 76 213 0.0 1.0 0.00 0.19 0.19 86 1014.3
20260905003039 76 196 0.0 0.0 0.00 0.19 0.19 86 1014.3
20260905001538 77 196 0.0 1.0 0.00 0.19 0.19 86 1014.1
20260905000040 77 281 0.0 1.0 0.00 0.19 0.19 86 1013.9
20260904234541 77 281 0.0 0.0 0.00 0.19 0.19 86 1013.8
20260904233031 78 281 0.0 1.0 0.00 0.19 0.19 86 1013.7
20260904231529 78 259 0.0 1.0 0.00 0.19 0.19 86 1013.6
20260904230027 78 335 0.0 2.0 0.00 0.19 0.19 86 1013.3
20260904224526 78 271 0.0 1.0 0.00 0.19 0.19 86 1013.4
20260904223022 78 271 0.0 2.0 0.00 0.19 0.19 86 1013.3
20260904221521 78 252 0.0 3.0 0.00 0.19 0.19 86 1013.2
20260904220019 78 283 0.0 3.0 0.00 0.19 0.19 86 1013.3
20260904214515 78 329 2.0 5.0 0.00 0.19 0.19 86 1013.1
20260904213013 78 313 2.0 5.0 0.00 0.19 0.19 86 1013.1
20260904211509 78 46 1.0 4.0 0.00 0.19 0.19 86 1012.8
20260904210007 78 294 0.0 3.0 0.00 0.19 0.19 86 1012.7
20260904204504 78 290 0.0 3.0 0.00 1.13 0.19 86 1012.6
20260904203100 77 303 0.0 6.0 0.00 1.13 0.19 85 1012.5